Regional Weather Roundup
Issued by NWS

Home | Current Version | Previous Version | Graphics & Text | Print | Product List | Glossary On
Versions: 1 2 3 4 5 6 7 8 9 10 11 12 13 14 15 16 17 18 19 20 21 22 23 24 25 26 27 28 29 30 31 32 33 34 35 36 37 38 39 40 41 42 43 44 45 46 47 48 49 50
359
ASUS44 KMEG 220310
RWRTN
TENNESSEE HOURLY STATE WEATHER ROUNDUP
NATIONAL WEATHER SERVICE MEMPHIS TN
1000 PM CDT SAT OCT 21 2017

TNZ002-004-019-021-049-052-054-088>092-220400-
WEST TENNESSEE

CITY           SKY/WX    TMP DP  RH WIND       PRES   REMARKS
MEMPHIS INTL   CLOUDY    73  63  70 SE12G21   30.06F
NWS MEMPHIS      N/A     71 N/A N/A MISG        N/A
JACKSON        PTCLDY    71  62  73 VRB7      30.10F
DYERSBURG        N/A     70  63  78 SE9       30.07F
SOMERVILLE     CLEAR     72  63  73 SE6G15    30.08S
COVINGTON      PTCLDY    70  63  78 SE10      30.07F
UNION CITY     CLEAR     70  61  73 SE12      30.08F
BOLIVAR        CLEAR     68  63  83 SE8       30.10S
HUNTINGDON     CLOUDY    68  61  77 SE7       30.11S
LEXINGTON      CLEAR     66  61  82 SE5       30.12F
SELMER         CLEAR     70  61  73 SE9       30.12F
SAVANNAH       CLEAR     70  61  73 S8        30.13F
$$

TNZ008-025-027-028-033-062-065-066-220400-
NORTH MIDDLE TENNESSEE

CITY           SKY/WX    TMP DP  RH WIND       PRES   REMARKS
NASHVILLE      CLOUDY    68  51  54 SE9       30.20R
PORTLAND       CLEAR     66  54  63 S9        30.19R
CLARKSVILLE    PTCLDY    64  58  80 E3        30.15S
SMYRNA         PTCLDY    63  53  70 SE7       30.21S
COOKEVILLE     CLEAR     50  48  93 CALM      30.23S
GALLATIN       PTCLDY    63  54  72 SE7       30.22S
CROSSVILLE     PTCLDY    59  48  67 S3        30.28R
$$

TNZ061-075-076-078-094-096-097-220400-
SOUTH MIDDLE TENNESSEE

CITY           SKY/WX    TMP DP  RH WIND       PRES   REMARKS
FAYETTEVILLE   PTCLDY    64  55  72 SE6       30.22S
TULLAHOMA      CLEAR     64  48  55 SE8       30.24F
WINCHESTER     CLEAR     63  52  67 CALM        N/A
COLUMBIA       PTCLDY    68  57  68 SE7G14    30.16S
SHELBYVILLE    PTCLDY    66  54  63 SE7       30.21S
$$

TNZ017-018-042-046-047-220400-
NORTHEAST TENNESSEE

CITY           SKY/WX    TMP DP  RH WIND       PRES   REMARKS
TRI CITIES     PTCLDY    58  48  69 CALM      30.31R
ELIZABETHTON   CLEAR     66  46  48 E6        30.32R
$$

TNZ012-013-036-069-073-074-220400-
CENTRAL EAST TENNESSEE

CITY           SKY/WX    TMP DP  RH WIND       PRES   REMARKS
KNOXVILLE      MOCLDY    59  57  93 CALM      30.25R
OAK RIDGE      PTCLDY    57  55  93 CALM      30.28R
DOWNTOWN KNOXV CLEAR     57  55  94 CALM      30.26S
GATLINBURG     CLEAR     55  54  94 CALM      30.26R
MORRISTOWN     CLEAR     61  50  67 NE3       30.27S
JACKSBORO      CLEAR     52  50  93 CALM      30.30S
$$

TNZ083-085-099-220400-
SOUTHEAST TENNESSEE

CITY           SKY/WX    TMP DP  RH WIND       PRES   REMARKS
CHATTANOOGA    PTCLDY    58  53  84 CALM      30.27R
DAYTON         PTCLDY    54  54 100 CALM      30.26R FOG
$$

SKY/WX REPORTED AS FAIR MEANS FEW OR NO CLOUDS BELOW
12 THOUSAND FEET.





USA.gov is the U.S. government's official web portal to all federal, state and local government web resources and services.